Wind_Speed
19 19 19 19 20 21 22 25 28 31 36 40 45 49 54 57 60 62 65 67 70 72 73 72 73 75 75 75 77 76 72 69 67 66 62 57 53 50 47 49 49 48 52 56 57 57 55 53 53 54 53 52 53 53 52 48 47 51 55 55 55 55 54 52 50 50 46 42 39 36 32 30 29 28 28 27 23 21 21 23 24 23 22 21 18
19 19 18 18 18 19 20 21 24 27 31 35 40 45 50 54 58 61 63 66 68 71 74 74 74 76 76 75 77 78 76 73 70 69 66 63 61 57 53 55 57 54 55 59 60 59 57 55 54 56 56 53 53 54 54 51 48 49 53 56 57 57 56 55 54 52 48 45 43 39 36 34 33 31 31 31 29 26 23 22 22 22 22 21 19
21 20 20 19 19 19 19 19 21 23 26 30 34 39 44 49 54 58 61 64 67 70 73 76 77 79 78 77 78 80 81 79 76 74 72 70 68 65 62 63 63 59 56 60 63 62 59 57 55 56 58 57 54 53 55 56 52 47 48 54 58 59 57 56 55 52 49 46 45 43 40 37 36 35 34 34 34 33 29 26 24 24 23 23 21
22 22 22 21 21 21 21 21 21 22 24 26 30 34 39 44 49 54 59 62 65 69 73 76 79 82 82 80 80 81 84 85 84 81 80 78 76 73 71 69 67 64 61 59 61 61 60 58 56 56 58 60 58 55 55 58 55 48 45 49 55 59 58 55 54 52 49 47 47 45 43 41 40 39 38 37 36 37 36 33 30 29 27 27 25
22 23 23 23 23 23 23 24 24 24 25 26 28 30 34 39 45 50 55 59 63 66 70 75 79 83 84 83 83 84 85 87 88 87 86 85 83 80 78 75 72 68 65 62 61 61 60 59 59 58 59 61 61 58 57 58 57 54 51 48 51 57 58 55 53 52 50 48 48 47 45 43 42 41 41 40 39 39 40 40 37 35 32 30 30
22 23 24 25 25 25 26 26 27 27 27 28 29 30 33 37 41 46 51 55 59 63 67 72 77 81 84 84 85 86 86 87 89 89 89 88 88 86 84 82 78 73 69 67 65 66 65 63 63 61 59 61 64 62 60 60 60 59 58 56 53 54 56 56 53 52 51 50 49 47 46 45 44 43 43 42 42 42 42 43 43 41 37 34 33
23 24 25 26 26 27 28 28 29 29 30 30 31 33 35 37 40 44 48 52 56 60 64 68 73 78 82 84 86 87 87 88 90 91 90 89 91 91 89 87 85 81 78 74 71 70 69 68 67 64 61 61 65 67 65 63 63 63 63 61 57 54 56 57 55 53 52 52 51 49 47 47 47 46 44 44 44 45 45 46 46 44 43 40 38
24 25 25 26 27 28 29 30 30 31 32 32 33 35 36 37 39 42 46 49 53 57 61 65 69 75 79 83 87 88 88 88 90 93 92 90 92 93 92 89 88 86 84 81 77 73 71 71 71 69 66 64 66 70 70 68 68 68 67 63 59 57 57 57 57 56 55 54 52 50 48 48 48 46 45 45 45 46 47 48 47 47 47 46 44
22 23 24 26 27 28 29 30 30 31 32 33 34 36 37 38 39 41 43 47 51 55 58 62 65 70 75 80 85 88 90 90 90 93 94 93 92 93 93 91 90 89 86 84 81 78 75 75 75 74 72 70 70 72 74 74 72 71 71 68 65 64 61 58 58 58 57 55 53 51 49 48 47 46 45 44 43 44 47 46 46 49 50 48 48
20 21 23 24 26 27 29 30 31 31 32 32 33 35 36 38 39 40 42 44 48 51 55 59 62 66 71 76 81 86 90 91 92 94 96 96 95 94 94 93 92 91 89 87 85 82 80 79 78 77 75 74 74 75 76 77 75 74 73 72 71 70 66 63 60 58 59 59 55 53 52 49 47 46 45 42 41 43 45 45 45 47 49 49 49
15 17 19 20 22 24 26 27 29 30 31 32 32 33 35 36 37 39 41 43 45 48 51 55 59 63 67 71 76 82 86 90 92 94 96 99 99 98 97 95 94 93 92 90 88 86 84 83 81 79 78 78 78 77 77 77 77 78 77 76 75 73 70 68 63 58 60 62 58 56 56 53 51 49 46 44 43 43 44 44 44 44 45 47 50
13 13 14 15 17 18 20 22 23 25 27 29 31 32 33 34 35 36 38 40 43 45 49 52 55 58 62 66 71 76 81 86 91 94 96 98 101 102 101 99 98 97 95 94 92 90 89 87 85 82 81 81 81 80 79 78 79 81 81 80 80 77 74 73 69 63 60 60 60 60 59 58 56 54 51 48 46 45 44 41 41 42 43 44 48
12 13 14 14 15 15 16 17 18 19 21 23 26 28 30 32 33 35 36 38 40 42 45 49 51 54 56 60 65 70 75 81 87 92 96 98 100 102 104 103 101 100 99 98 97 95 93 91 89 87 84 83 84 84 82 81 80 81 82 83 82 80 77 75 74 71 64 60 60 62 61 59 58 57 56 53 50 48 46 41 39 40 41 42 44
12 12 12 13 14 14 15 15 16 16 16 18 19 22 25 28 31 33 35 37 38 40 42 44 47 48 50 54 58 64 69 74 80 86 92 96 99 102 104 105 104 103 101 101 100 98 96 95 93 90 88 86 87 86 85 84 84 83 84 83 82 81 79 77 75 73 69 64 63 64 63 60 59 59 59 57 55 52 49 46 44 43 42 42 43
13 13 12 12 13 13 14 14 15 15 15 15 16 17 18 21 25 28 31 34 37 39 41 42 43 45 46 48 52 57 63 67 73 79 85 91 97 100 103 105 106 105 103 102 101 100 99 98 96 94 92 90 90 89 88 87 87 87 86 86 85 83 82 81 79 75 72 68 65 66 66 63 62 62 61 60 58 55 53 51 50 48 46 44 43
16 15 15 14 14 14 14 14 14 15 15 15 15 16 16 18 20 23 26 29 33 36 38 40 41 43 44 45 47 51 56 62 67 71 77 83 90 97 101 104 105 106 105 104 104 103 102 101 99 98 96 94 94 93 91 90 90 90 89 89 88 87 86 85 83 79 76 72 69 68 69 68 66 64 63 62 61 59 57 55 54 52 50 48 46
18 18 17 17 16 16 16 16 16 16 16 16 16 16 16 17 18 20 22 25 28 31 34 37 39 40 42 43 44 46 50 56 61 66 70 76 81 89 97 102 105 106 106 106 106 105 105 104 103 101 99 98 98 97 95 94 93 92 92 91 91 90 90 89 87 83 80 77 74 72 71 71 69 67 65 63 63 63 60 57 57 56 52 51 50
21 20 20 19 19 19 19 19 18 18 18 18 18 18 18 18 19 20 21 23 25 27 30 32 35 37 39 41 42 44 46 50 56 61 66 70 75 81 88 96 103 106 107 107 107 108 108 107 106 105 103 102 101 100 99 98 96 95 94 94 94 93 93 92 90 88 85 82 80 77 75 74 73 72 70 68 67 67 63 61 61 59 54 54 54
22 22 21 21 21 21 20 21 21 21 21 20 20 20 21 21 21 22 23 24 25 27 28 30 31 33 35 37 39 41 43 46 51 57 62 67 71 75 81 89 97 103 107 109 109 110 110 110 109 108 107 106 104 104 103 102 101 99 97 96 96 96 96 95 94 92 90 87 85 82 80 78 77 75 74 74 73 71 68 65 66 64 60 58 58
22 22 22 21 22 22 22 22 22 23 23 23 23 23 23 24 25 25 25 26 27 28 29 30 31 32 33 34 36 37 40 42 46 52 58 64 68 72 77 83 89 97 103 108 110 111 112 113 112 111 110 109 108 107 106 105 104 103 101 100 99 99 98 98 97 96 94 92 90 87 85 83 81 79 78 78 77 76 74 71 70 69 66 63 61
22 22 22 22 22 23 23 24 24 24 24 25 25 26 26 27 27 28 28 29 29 30 30 31 32 33 33 33 34 35 37 39 42 47 54 61 66 71 75 79 85 91 97 104 109 112 114 115 115 114 113 112 111 110 109 109 108 107 105 104 103 102 101 101 100 100 98 96 94 92 90 88 86 84 83 82 81 79 78 76 74 73 71 68 65
21 21 22 22 23 24 25 25 25 26 26 27 28 28 29 30 30 30 30 31 31 32 32 33 34 35 35 35 35 35 36 37 40 43 49 56 63 69 74 78 82 87 93 99 105 110 114 116 117 117 116 115 114 114 113 112 111 110 109 108 106 105 104 103 103 102 101 99 98 96 94 93 91 89 87 86 85 83 81 80 78 77 76 73 70
22 22 23 24 24 25 25 26 27 28 28 29 30 31 32 32 32 33 33 33 33 33 34 34 35 36 37 37 38 38 38 38 39 42 45 50 58 66 72 77 81 85 89 95 100 106 111 116 118 120 120 119 118 117 116 115 114 113 112 111 110 109 108 107 106 105 104 103 101 100 98 97 95 93 91 90 89 87 85 83 82 81 80 78 75
22 23 24 24 25 26 27 28 29 30 30 31 32 33 33 34 34 34 34 34 34 35 35 35 35 36 37 39 40 41 41 41 42 42 44 47 52 59 67 74 79 83 87 91 96 102 108 113 117 120 122 123 122 120 119 118 117 115 115 114 113 112 111 110 110 109 107 106 105 103 101 100 98 97 96 94 93 91 89 88 86 85 84 83 81
23 24 24 25 26 28 29 30 31 32 32 33 33 34 34 34 35 35 35 35 35 36 36 36 36 37 38 39 40 42 43 44 45 45 46 47 50 54 61 68 76 81 85 89 93 98 103 109 115 119 122 124 125 124 123 122 121 119 117 117 116 115 114 113 113 112 112 110 109 107 105 104 102 100 99 98 96 95 94 92 91 89 87 86 85
24 25 26 27 28 29 30 31 32 32 33 33 33 34 34 35 35 36 36 36 36 37 37 37 37 37 37 38 40 41 43 46 47 49 50 50 51 53 56 62 69 76 82 87 90 94 99 104 110 115 120 124 126 127 126 125 125 123 122 120 119 118 117 116 116 115 115 114 113 112 110 108 107 105 103 102 100 99 98 97 95 93 91 90 88
25 26 27 28 29 30 30 31 31 32 32 33 34 34 35 36 36 37 37 38 38 38 38 38 38 38 38 38 39 41 43 45 48 51 53 54 55 55 56 58 63 68 75 81 87 91 95 99 104 110 116 121 125 127 128 128 128 127 127 126 124 123 121 120 119 118 117 117 116 115 114 113 111 110 108 106 104 103 102 101 99 97 96 94 92
25 26 26 27 28 28 29 29 30 31 32 33 34 35 36 37 38 38 39 40 40 40 40 40 40 40 40 40 40 41 42 44 47 50 53 56 57 58 58 59 60 63 68 74 80 86 91 95 99 104 109 115 120 124 128 129 129 130 130 130 129 128 127 125 124 122 121 119 119 118 117 116 115 114 112 111 109 108 107 105 104 102 100 99 96
23 24 25 25 26 27 28 29 30 32 33 34 35 36 37 38 39 40 41 42 42 43 43 43 43 43 43 43 43 43 43 44 45 47 50 53 56 58 60 61 62 63 65 68 73 78 84 89 94 99 103 108 113 118 123 127 130 131 131 132 132 132 131 130 129 127 125 124 122 121 119 118 118 117 116 114 113 112 111 110 109 107 105 103 101
22 23 24 25 26 27 28 30 31 32 33 34 35 37 37 39 40 41 42 43 44 45 46 47 47 48 48 48 48 47 47 46 46 45 46 47 50 54 58 62 64 65 66 67 69 72 76 81 87 92 97 102 107 111 116 121 125 129 131 133 133 134 134 133 132 131 130 128 126 125 123 122 121 119 118 117 116 116 115 114 113 111 110 108 106
24 25 25 26 27 28 29 29 30 31 32 33 34 36 37 39 40 42 43 44 45 47 48 49 50 51 52 52 52 52 51 51 50 48 46 44 45 48 53 58 63 66 68 69 70 71 73 76 80 84 90 95 100 105 109 113 118 122 127 130 133 134 135 136 136 135 134 132 130 129 127 125 124 123 122 120 119 118 118 117 116 115 114 112 110
25 25 26 27 27 28 29 30 30 31 32 33 34 35 36 38 40 42 43 44 46 48 49 50 52 53 54 54 55 55 55 54 54 53 50 47 45 45 48 52 57 62 66 69 70 72 72 74 76 78 82 86 91 96 101 106 110 114 119 123 128 131 134 136 137 138 137 136 134 132 131 129 128 126 125 124 123 122 121 120 119 118 117 115 113
26 27 27 28 29 30 30 31 31 32 33 33 34 35 36 37 38 40 42 44 45 47 48 49 50 51 53 54 54 54 54 55 55 55 54 52 49 47 47 49 52 57 62 66 69 71 73 74 75 76 77 80 83 87 91 96 101 106 110 115 119 124 128 132 135 138 139 139 139 137 136 134 132 130 129 127 126 125 124 123 122 121 120 117 115
28 29 30 31 32 33 34 34 34 34 35 35 36 36 36 37 38 39 40 42 44 45 46 47 48 49 50 51 52 52 52 52 53 54 54 53 52 50 48 48 50 53 57 61 65 69 72 74 75 76 76 77 78 81 84 87 91 95 100 105 110 114 119 124 128 132 136 138 140 141 141 139 138 136 134 132 131 129 128 127 126 125 123 121 118
32 33 34 34 35 36 37 38 38 38 38 39 39 38 38 39 39 40 41 42 43 44 45 46 46 47 47 48 49 50 50 50 50 51 51 51 51 51 50 49 49 50 53 56 60 64 67 71 73 75 76 76 77 78 79 81 84 87 90 94 98 103 108 113 118 123 127 131 135 138 140 142 142 142 141 139 137 135 133 131 130 128 127 125 123
35 36 36 37 38 39 40 40 41 42 42 42 42 42 42 42 42 43 44 45 45 45 45 45 46 47 47 48 48 48 48 48 48 49 49 49 49 49 49 49 49 50 51 53 55 59 62 66 69 72 74 75 76 77 77 78 79 81 84 86 89 93 96 101 106 111 116 120 125 129 133 136 139 141 142 143 143 142 141 139 137 135 133 131 129
38 38 39 40 41 41 42 43 44 45 46 46 46 46 45 45 46 46 47 47 47 47 47 47 47 47 48 49 49 48 48 48 48 48 48 48 48 48 48 49 49 50 50 51 52 55 58 61 64 68 70 72 74 75 76 77 77 78 80 82 84 86 88 91 95 98 103 108 113 117 121 125 129 133 136 139 141 143 144 144 144 143 141 139 136
40 40 41 42 43 44 45 46 47 47 48 49 50 50 49 49 49 49 49 50 49 49 49 49 49 49 49 49 49 49 49 49 49 49 48 48 48 48 48 48 49 50 51 51 51 53 54 57 60 63 66 69 71 72 74 75 76 77 77 78 80 82 84 86 88 90 93 96 100 104 109 113 117 121 125 129 132 135 138 141 143 144 144 144 142
42 43 43 44 45 46 47 48 49 50 51 52 53 53 53 53 52 52 52 52 52 51 51 51 51 51 51 51 51 50 50 50 50 50 50 49 49 48 48 48 48 50 51 52 52 52 53 54 57 59 62 64 67 69 71 73 74 75 76 76 77 79 81 82 84 85 87 89 91 94 97 100 104 108 113 117 121 125 128 131 134 137 139 141 142
44 45 46 46 47 48 49 50 52 53 54 54 55 56 56 56 55 54 54 54 54 54 53 53 53 53 53 53 52 51 51 51 51 51 51 51 50 50 49 49 48 48 50 51 53 53 54 54 55 56 58 60 63 65 67 69 71 73 74 75 76 76 78 79 81 82 84 85 86 88 90 92 94 97 100 104 108 113 117 120 124 127 130 132 135
46 47 47 48 49 49 50 52 53 55 56 57 58 58 59 58 57 56 56 55 55 55 55 55 55 55 55 54 53 52 52 52 52 52 52 52 52 52 51 51 50 49 49 50 52 53 54 55 55 55 56 57 59 61 63 66 68 70 71 73 74 75 76 77 78 80 81 82 83 84 86 87 89 90 92 94 97 100 105 109 113 116 119 122 125
48 48 49 49 50 51 52 53 55 56 58 59 60 60 61 60 59 57 57 56 56 57 57 57 57 58 57 56 55 53 53 52 52 52 52 52 52 53 53 53 53 52 50 50 50 51 53 54 55 55 56 56 56 57 59 61 63 65 67 69 71 72 74 75 76 78 79 80 81 82 82 84 85 86 87 89 90 92 94 98 101 105 109 112 115
49 50 50 51 51 52 53 55 56 58 59 60 62 62 62 61 60 58 57 57 57 58 58 59 59 60 60 58 57 55 54 53 53 52 52 52 52 53 53 54 54 54 52 51 50 50 51 52 53 55 55 56 56 56 56 57 58 60 63 65 67 69 71 72 74 75 77 78 79 80 80 81 82 83 84 85 86 87 89 90 93 96 99 102 105
52 52 52 52 53 54 54 56 57 59 60 62 63 64 64 63 61 59 58 58 59 59 60 61 62 62 62 60 59 57 56 54 53 52 52 52 52 53 53 53 54 54 53 52 51 50 50 50 51 52 54 55 55 55 55 55 55 56 58 60 62 65 67 68 70 72 73 75 77 78 79 80 80 81 81 82 83 84 85 86 87 89 91 94 96
54 54 54 54 54 55 55 57 58 59 61 63 64 65 65 64 62 60 59 59 60 61 62 64 64 64 63 62 60 59 57 56 54 53 53 53 53 53 53 53 53 53 53 52 51 50 49 49 49 50 51 52 53 54 55 55 55 55 55 56 58 60 62 65 66 68 70 72 73 75 76 78 79 79 80 80 81 82 83 83 84 85 87 88 90
56 56 56 55 55 55 56 57 59 60 62 64 65 66 66 65 62 61 60 60 61 63 64 66 66 66 65 63 62 61 59 57 55 54 54 53 53 53 53 53 53 52 52 51 51 50 49 48 48 48 49 50 51 52 53 54 54 54 54 55 55 56 58 61 63 64 66 68 69 71 73 74 76 78 79 79 79 80 80 81 82 82 83 84 86
56 57 56 56 56 56 57 58 59 61 63 65 66 67 66 65 63 62 61 62 63 65 66 67 68 67 66 65 65 63 61 59 57 56 55 54 54 53 53 52 52 51 50 50 50 49 48 47 46 47 47 48 49 50 51 52 53 54 54 54 55 55 56 57 59 61 63 64 66 67 69 71 72 74 76 78 79 79 79 79 79 80 80 81 83
55 56 56 56 56 57 58 59 60 62 64 66 67 67 66 65 63 63 63 64 65 67 68 69 69 68 67 67 67 66 64 61 59 57 56 55 54 53 53 52 51 50 49 48 48 47 47 46 45 45 45 46 47 48 49 49 50 52 53 54 54 55 55 55 56 58 59 61 63 64 66 67 69 70 72 74 76 78 79 79 78 78 78 78 79
56 56 56 56 56 57 58 58 60 62 65 66 68 68 66 65 63 63 64 65 67 68 70 70 70 69 69 69 70 69 67 64 61 59 57 56 55 53 52 51 50 49 48 47 46 45 45 44 44 44 44 44 45 46 47 48 48 49 50 52 53 54 55 55 55 55 56 58 60 62 63 64 66 67 69 71 73 75 77 78 78 78 77 77 77
58 58 58 57 56 57 57 58 60 63 65 67 68 68 66 64 63 64 64 66 68 70 71 71 70 70 70 71 72 72 69 65 62 60 58 56 55 53 52 51 50 49 47 46 44 43 43 43 42 43 43 43 43 44 45 46 47 48 48 50 51 53 54 54 55 55 55 56 57 59 60 62 63 65 66 67 69 71 73 75 77 77 77 76 76
60 60 60 58 57 57 57 58 61 63 66 68 69 68 66 64 64 64 66 67 69 71 72 72 71 71 71 72 74 73 70 66 63 60 58 57 55 54 52 51 50 48 47 45 44 42 42 41 41 41 41 42 42 43 44 45 46 47 47 48 49 50 52 53 54 55 55 55 55 56 57 59 61 62 63 65 66 68 70 72 74 75 76 76 76
Wind_Direction
263 262 261 259 257 254 249 245 243 240 237 234 232 231 230 229 228 228 227 227 226 224 222 221 222 223 222 219 217 217 216 215 216 217 217 214 213 215 219 222 223 229 234 235 237 239 238 237 237 234 231 231 232 232 230 230 237 242 239 238 239 239 240 241 244 247 248 248 248 246 247 249 248 245 242 242 241 237 234 231 230 230 230 230 231
263 265 263 261 259 258 254 250 247 244 241 239 236 234 232 230 229 228 227 226 226 224 222 220 220 221 221 220 218 217 217 215 215 216 215 213 211 210 213 218 221 226 232 234 235 237 237 235 235 232 228 227 231 232 229 227 235 242 241 238 239 239 240 241 244 246 245 244 246 245 244 246 247 245 243 243 242 240 237 234 233 233 232 232 234
259 262 264 263 261 259 257 253 250 246 244 242 240 238 236 234 232 231 229 227 226 225 223 221 220 219 220 221 219 217 217 216 214 214 213 213 212 210 211 214 217 222 229 231 232 234 235 234 233 233 228 224 227 231 230 228 232 239 243 242 240 239 240 241 243 244 241 240 243 244 243 243 245 245 243 242 242 243 240 237 236 237 237 239 242
255 258 260 262 262 261 260 257 254 250 246 243 241 240 239 237 235 234 232 230 228 226 225 223 221 219 220 222 221 219 218 217 215 214 214 214 212 211 212 213 214 219 224 228 230 232 234 234 233 232 230 226 225 228 229 229 230 233 239 244 243 241 240 239 240 240 239 237 239 242 243 242 242 244 243 241 241 243 243 241 239 241 243 246 248
257 257 257 258 259 260 260 259 257 255 251 247 243 241 240 238 237 236 235 233 232 229 227 225 223 221 221 222 223 221 219 218 218 217 217 217 216 213 214 216 216 219 222 225 228 230 231 232 231 231 231 228 226 226 228 229 230 230 232 238 243 243 240 237 238 239 238 237 237 240 242 241 240 241 242 241 239 241 243 244 244 244 245 248 251
260 259 258 258 257 257 257 258 258 257 255 252 249 244 241 240 238 237 236 235 234 232 230 228 226 224 223 223 224 223 221 219 220 220 219 220 219 218 218 220 222 222 223 224 226 228 229 230 230 230 230 229 227 227 227 228 229 229 230 233 238 243 241 236 236 239 239 239 238 239 240 239 239 239 239 240 239 239 242 244 246 247 247 249 250
264 262 261 259 258 257 256 256 256 256 255 254 253 249 245 242 240 239 238 237 236 235 233 231 229 227 225 224 224 224 223 220 220 221 221 221 221 221 221 222 224 224 223 223 224 226 228 230 231 230 230 230 229 227 227 228 227 228 230 232 235 243 244 238 236 237 238 240 239 238 238 238 239 240 239 239 240 240 242 244 247 249 250 250 249
269 268 267 265 264 262 260 259 258 258 257 256 255 254 251 248 245 243 241 240 239 238 236 234 232 229 227 226 225 224 225 224 222 221 222 222 222 223 223 223 225 225 225 224 224 225 226 228 229 229 229 229 228 228 227 228 228 227 229 230 231 237 241 239 237 237 236 239 240 238 237 237 238 241 241 241 242 243 244 246 248 251 252 253 252
274 273 272 270 269 268 266 265 263 262 260 259 257 256 255 253 251 249 246 245 243 242 240 238 236 233 230 228 227 226 226 226 225 223 223 223 223 224 224 224 225 226 226 225 225 225 226 227 228 228 228 227 228 227 227 227 228 228 228 228 228 232 235 235 237 238 236 237 240 240 238 236 236 238 241 244 246 248 249 249 251 252 253 255 256
276 276 275 274 273 272 271 270 268 266 263 261 259 257 256 255 254 252 251 249 248 246 244 242 240 238 234 231 229 228 227 227 227 226 224 224 224 225 225 225 225 225 225 226 226 226 227 228 229 229 229 229 229 229 228 228 228 229 229 228 228 231 233 233 234 236 236 235 237 238 238 237 237 238 240 243 247 251 254 253 253 254 255 255 256
285 282 281 279 278 278 277 275 273 271 268 264 261 258 256 255 254 253 252 251 250 249 248 246 244 242 240 236 233 231 229 228 228 227 226 225 225 226 227 226 226 225 226 227 228 228 228 229 229 230 230 230 231 231 231 230 230 230 230 230 230 231 235 235 234 235 235 234 235 238 238 237 238 238 238 239 242 246 252 255 256 256 257 256 256
308 303 298 295 292 289 287 285 282 279 275 270 266 262 259 257 255 254 253 252 252 251 250 249 247 245 244 242 239 235 233 230 228 228 228 227 227 227 228 228 228 228 228 229 230 230 231 230 230 230 230 231 232 232 233 232 232 232 232 233 234 235 237 238 236 234 234 234 235 237 238 238 240 240 239 239 240 242 246 252 256 257 257 257 256
313 311 309 308 305 302 299 296 293 288 283 277 271 266 263 260 258 256 255 254 253 253 252 251 250 248 246 245 244 241 237 234 231 229 228 229 228 228 228 229 230 230 230 231 231 232 231 231 231 230 230 231 232 232 233 234 234 235 235 235 237 238 239 240 238 235 234 234 234 236 238 239 241 242 241 241 242 242 241 243 249 252 253 255 256
305 304 304 305 305 305 305 303 301 298 293 286 279 271 266 262 260 258 257 256 255 255 255 255 253 251 248 246 246 244 242 239 235 232 229 229 229 229 229 229 230 230 230 231 232 232 232 231 231 231 230 231 232 232 233 234 234 236 237 238 239 240 241 242 241 238 236 233 232 235 237 238 239 240 241 242 242 242 240 239 242 245 246 249 252
297 297 297 297 298 299 301 302 303 302 301 297 291 283 275 268 263 260 258 258 257 257 258 258 258 256 252 248 246 245 244 242 239 236 233 230 230 230 230 230 230 230 230 231 231 232 232 232 232 232 231 231 232 232 232 233 234 235 237 239 240 240 241 242 242 242 240 237 233 232 234 236 238 238 240 242 243 244 243 242 241 242 244 246 247
292 292 293 292 293 293 294 295 297 298 298 298 295 292 287 280 273 268 265 262 261 261 261 261 260 260 257 252 248 246 245 243 241 239 237 233 231 230 230 230 231 231 231 231 231 232 232 233 233 233 232 232 232 232 233 233 234 235 237 238 239 240 241 242 242 243 243 242 239 235 233 234 237 238 240 242 243 243 244 244 244 243 244 246 246
288 288 289 290 290 290 291 291 292 292 292 292 292 291 289 286 282 277 273 270 267 266 265 264 264 263 261 259 254 249 246 244 242 240 239 236 233 231 230 230 230 231 231 231 231 231 232 233 234 234 233 233 233 233 233 234 234 235 236 237 239 240 241 242 243 243 243 243 243 241 238 236 237 239 240 241 242 242 241 243 245 245 244 245 246
286 286 287 288 288 289 290 291 292 292 291 290 290 289 288 286 283 280 277 275 272 269 268 267 266 264 263 262 259 254 249 245 243 241 239 237 235 233 231 230 230 231 231 232 232 231 232 233 234 234 234 234 234 234 235 235 235 235 236 237 238 239 240 241 243 243 244 243 243 243 242 241 240 241 242 242 243 243 242 241 244 244 243 244 245
284 285 285 286 287 288 290 291 292 293 293 292 291 290 289 286 284 282 279 276 274 273 271 269 267 265 263 261 260 258 253 248 243 241 239 238 236 234 232 231 230 230 231 231 232 232 232 232 233 234 235 235 234 234 235 236 235 235 236 237 238 239 240 241 242 243 243 244 243 243 243 242 242 242 243 244 244 245 245 243 243 244 243 243 245
285 285 285 285 286 288 290 291 292 293 293 292 291 289 288 287 286 284 282 279 277 275 273 272 271 268 265 262 260 258 256 251 246 241 238 237 236 234 233 231 230 230 230 231 231 232 232 232 232 233 235 235 235 235 235 236 236 236 236 237 237 238 239 241 242 242 243 243 244 244 243 243 242 242 243 245 245 246 247 246 246 245 245 244 244
285 286 286 287 287 289 290 291 291 292 291 291 290 290 289 288 287 285 284 282 279 277 275 274 273 272 269 266 262 259 257 254 250 244 239 237 236 235 234 232 231 230 230 230 231 231 232 232 232 233 234 235 236 236 236 236 236 237 237 237 237 238 239 239 241 242 243 243 244 244 244 243 243 243 243 244 245 245 246 247 247 248 248 247 245
289 289 289 289 289 289 290 291 290 291 291 290 290 291 290 289 288 287 285 284 282 280 278 276 274 273 272 270 267 263 259 256 253 249 244 239 236 235 235 234 232 232 231 230 230 231 231 231 232 232 233 234 235 236 236 237 237 237 237 237 237 238 239 239 240 241 242 243 243 244 244 244 244 244 244 244 244 245 245 246 247 248 249 249 248
292 292 291 290 290 290 290 290 290 291 291 292 292 292 291 291 290 288 287 286 284 282 280 277 275 273 272 271 269 267 264 260 256 252 249 244 240 237 236 235 234 233 232 231 231 230 231 231 231 232 232 233 234 235 236 237 237 238 238 238 238 238 239 239 240 240 241 242 243 243 244 244 245 245 245 245 245 245 245 245 246 247 248 248 249
292 292 292 292 291 291 291 291 292 293 293 294 294 293 293 292 291 290 289 288 286 284 282 279 277 274 272 271 270 268 267 265 261 257 253 249 245 241 238 237 236 235 234 233 232 231 231 231 232 232 232 233 233 234 235 236 237 238 238 239 239 239 239 239 240 241 242 242 243 243 244 244 245 245 245 245 245 245 246 245 246 246 247 248 248
291 291 292 292 292 293 294 294 295 295 295 295 295 295 295 294 294 293 292 291 290 289 286 284 281 277 274 272 270 269 268 266 264 261 258 253 250 246 243 240 239 238 237 236 235 233 232 232 232 232 233 233 233 234 235 236 237 238 238 239 239 240 239 240 240 241 242 243 243 244 244 244 245 245 245 245 246 246 246 246 246 246 247 248 248
291 292 293 294 295 296 296 297 297 298 298 298 298 297 297 297 297 297 296 295 294 292 290 288 285 283 279 276 273 270 268 266 264 262 260 257 253 250 247 244 242 241 240 239 238 237 235 234 233 233 233 234 234 235 235 236 237 238 239 239 240 240 241 240 240 241 241 242 243 244 244 245 245 245 246 246 246 246 246 247 246 246 247 248 248
294 295 296 297 298 298 299 299 300 300 301 301 301 302 302 302 302 301 301 300 298 296 294 292 290 288 285 281 277 273 270 267 265 263 261 260 258 254 251 248 246 244 242 241 241 240 239 238 236 235 235 235 235 235 236 236 237 237 239 240 241 242 242 242 242 242 242 242 243 243 244 245 245 246 246 246 246 246 246 247 247 247 247 248 249
300 300 300 301 301 302 302 303 304 305 305 306 307 307 307 307 307 306 305 303 302 301 300 298 296 294 292 288 284 280 275 271 267 265 263 262 261 259 257 253 250 248 246 244 243 242 242 241 240 239 237 237 236 236 237 237 237 237 238 239 241 242 243 243 243 243 243 243 243 243 244 244 245 245 246 246 247 247 247 247 248 247 248 249 250
309 308 308 308 308 308 308 309 309 310 310 311 311 311 311 310 310 309 308 307 307 307 305 304 303 301 299 296 293 289 285 280 274 269 265 263 262 261 260 258 256 253 250 248 246 244 244 243 242 241 240 239 239 238 238 238 238 238 238 239 240 241 242 244 244 245 245 244 244 244 244 244 244 245 245 246 247 247 247 248 248 248 248 249 250
323 321 320 318 317 316 315 314 314 313 313 313 313 312 312 312 312 310 310 310 310 309 308 307 307 305 304 302 300 297 294 291 286 279 272 267 263 261 260 259 258 257 255 252 249 247 246 245 244 243 243 242 241 240 240 239 239 239 239 239 239 240 241 242 244 245 245 245 245 245 245 245 245 245 245 246 246 247 247 248 248 249 249 250 251
335 332 329 327 324 322 320 318 317 316 316 315 315 315 315 314 313 312 312 312 311 309 308 307 306 305 304 303 302 301 299 297 294 290 283 276 269 264 260 258 258 257 257 256 254 252 249 248 246 245 244 244 243 242 242 241 240 240 240 240 240 240 240 241 242 243 244 245 246 246 246 246 246 246 246 246 246 246 247 247 248 249 249 251 252
343 339 336 333 330 328 326 324 322 321 320 319 318 317 317 316 316 315 314 313 311 309 307 306 304 303 302 301 300 300 299 298 297 295 291 286 279 271 265 261 258 257 257 257 257 256 254 252 250 248 247 246 245 245 244 243 243 242 241 241 241 241 241 241 241 242 243 244 245 245 246 246 247 247 247 247 247 247 247 247 247 248 249 250 251
349 346 343 340 337 335 333 331 329 327 325 323 322 321 320 319 319 318 316 314 311 308 305 303 301 300 299 299 298 298 298 297 296 295 294 291 287 280 273 267 262 259 257 256 256 257 257 256 255 253 251 250 248 247 247 246 245 244 243 243 242 242 242 242 242 242 242 243 244 244 245 245 246 246 247 247 247 247 247 248 248 248 248 249 250
349 348 346 345 343 342 340 337 334 331 329 327 325 324 323 322 321 319 317 315 312 309 306 304 301 300 299 298 298 297 297 296 295 294 294 293 291 287 281 274 268 263 260 258 257 256 256 257 257 257 255 254 252 250 249 248 248 247 246 245 244 244 243 243 243 243 243 243 244 244 244 245 245 246 246 247 247 247 247 248 248 249 249 249 249
345 345 345 344 343 343 342 341 338 335 332 329 328 326 325 324 323 321 319 316 314 312 310 308 306 303 301 300 299 298 298 297 295 294 294 293 291 289 285 280 274 269 265 261 259 257 256 256 256 257 257 256 255 254 252 251 250 249 248 247 247 246 245 244 244 244 244 244 244 244 244 245 245 245 246 246 246 247 247 247 248 248 249 250 250
341 340 340 341 341 341 341 341 340 338 335 331 329 327 326 325 324 323 322 320 318 316 315 313 311 309 306 304 302 301 300 299 298 297 296 294 293 291 288 283 279 274 269 265 262 260 258 256 255 255 256 256 256 255 254 253 252 250 250 249 248 248 247 246 246 245 245 245 244 244 244 245 245 245 246 246 246 246 247 247 247 248 248 249 250
337 337 337 337 338 338 338 338 338 337 336 333 330 328 327 326 326 325 324 323 322 321 319 317 316 315 313 310 308 306 304 302 301 299 298 297 295 293 290 287 282 278 273 269 265 263 260 258 257 256 255 255 255 255 255 254 253 252 251 250 250 249 249 248 247 247 246 246 245 245 245 245 245 245 245 246 246 246 246 247 247 247 248 248 249
333 333 334 334 335 335 336 336 336 335 335 334 332 330 328 327 326 326 326 325 324 323 322 321 319 318 316 314 312 310 308 306 304 302 300 299 297 295 292 289 286 282 277 273 269 265 263 261 259 257 256 255 254 254 254 254 254 253 252 251 251 250 250 249 249 248 248 247 247 246 246 245 245 245 245 246 246 246 246 246 247 247 247 247 248
328 329 330 331 332 333 333 334 334 334 334 334 333 331 329 327 326 326 326 326 326 325 324 323 322 321 319 317 315 314 312 310 307 305 303 301 299 296 294 290 287 284 280 277 274 270 266 263 261 259 258 256 255 254 254 253 253 253 253 252 251 251 250 250 250 249 249 248 248 248 247 247 246 246 245 245 246 246 246 246 246 247 247 247 247
324 325 326 328 329 330 331 331 332 332 332 333 333 331 329 327 326 326 327 327 327 327 326 326 324 323 321 320 318 316 314 312 309 307 305 303 301 299 296 293 289 285 281 279 276 274 271 267 264 262 260 258 257 255 255 254 253 253 253 253 252 252 251 251 250 250 250 249 249 249 248 248 247 247 246 246 246 246 246 246 246 247 247 247 247
319 321 322 323 325 327 329 330 330 331 331 331 331 331 329 327 326 326 327 328 328 329 328 328 326 325 323 321 319 318 316 313 311 309 307 305 303 302 299 296 293 289 284 280 277 275 273 271 269 266 263 261 259 257 256 255 254 254 253 253 253 252 252 251 251 251 250 250 249 249 249 249 248 248 247 247 246 246 246 246 246 246 247 247 247
315 317 318 320 322 324 326 328 329 329 329 330 330 330 328 326 325 325 327 329 330 330 330 330 328 327 324 322 321 320 318 315 313 311 309 307 305 304 302 299 297 293 289 284 280 276 274 273 272 270 268 265 263 260 258 256 255 255 254 254 253 253 252 252 251 251 251 251 250 250 249 249 249 248 248 248 247 246 246 246 246 246 246 246 246
312 314 315 317 320 322 324 326 327 328 328 329 329 328 327 325 325 326 328 330 331 332 332 332 331 329 326 324 323 321 319 317 314 312 310 308 307 305 303 301 299 296 293 289 284 280 276 274 273 272 271 269 267 265 262 260 257 255 255 255 254 254 253 253 252 252 251 251 251 251 250 250 249 249 248 248 248 247 246 246 246 246 246 246 246
310 312 313 316 318 320 321 323 325 326 327 327 327 327 326 325 325 327 329 331 332 332 333 333 332 331 328 326 325 323 321 318 316 314 312 310 308 306 304 302 300 298 295 292 288 284 280 277 274 273 272 271 270 269 267 265 262 259 256 255 254 254 254 254 253 252 252 251 251 251 251 251 250 250 249 248 248 248 247 246 246 246 246 246 246
308 310 312 314 316 317 319 321 322 324 326 326 326 326 326 325 326 327 329 330 332 333 333 333 333 331 330 329 327 325 323 320 318 316 314 312 310 308 306 304 301 299 297 294 291 288 284 281 277 275 273 271 270 270 269 267 266 263 260 258 256 254 254 254 254 253 253 252 252 251 251 251 251 251 250 249 249 248 248 247 246 245 245 246 246
307 308 310 312 314 316 317 319 321 323 325 325 325 326 325 325 325 327 328 330 332 333 333 333 332 332 331 330 329 327 324 322 320 318 316 314 312 310 308 305 303 301 298 296 293 290 287 284 280 278 275 273 271 270 269 268 267 266 264 261 259 256 255 254 254 254 253 253 252 252 251 251 250 251 251 250 250 249 249 248 247 246 245 245 245
307 307 308 310 312 314 316 317 319 322 323 324 324 325 325 325 325 327 328 330 332 332 333 332 332 332 332 332 331 329 326 324 322 320 318 316 314 312 310 308 305 302 300 297 294 292 289 286 283 280 277 275 273 271 269 268 267 266 265 264 262 259 257 255 254 253 253 253 253 252 252 251 250 250 250 250 250 250 250 249 248 247 245 244 245
311 310 309 310 312 313 314 316 318 321 322 323 323 324 324 325 325 327 328 330 331 332 332 331 331 332 333 333 333 331 328 326 324 321 319 317 315 314 312 310 307 305 301 298 296 293 291 288 286 282 279 277 275 273 271 269 267 266 265 264 264 262 260 258 255 253 252 252 253 253 252 252 251 250 249 249 250 250 250 250 249 248 247 245 244
315 313 312 311 311 312 312 314 317 320 321 322 322 324 324 325 325 326 328 330 330 331 331 330 331 332 333 334 334 332 329 327 324 322 320 318 316 315 314 312 310 307 303 300 297 295 293 290 288 285 282 279 276 274 272 271 269 267 265 264 264 263 262 261 258 256 253 252 251 252 252 252 251 251 250 249 249 249 249 250 250 250 249 247 245
316 315 314 312 311 310 311 314 317 319 320 321 322 323 324 324 324 326 328 329 330 330 330 330 330 332 333 334 334 332 330 327 325 323 321 319 318 317 316 315 312 309 305 302 299 297 294 292 290 287 284 281 278 276 274 272 270 268 266 265 264 263 262 262 261 259 257 254 252 251 251 251 251 251 250 250 249 249 249 249 249 250 249 249 247
315 315 314 312 310 310 311 314 317 319 319 320 322 323 323 323 324 326 328 329 329 329 329 329 330 332 333 334 334 332 330 327 325 324 322 320 319 319 318 316 314 311 307 304 302 299 297 294 291 289 286 283 281 278 276 274 272 270 268 266 264 263 262 262 261 261 259 257 255 253 251 250 250 250 250 250 249 249 248 248 249 249 249 249 249
Height
10526 10526 10526 10525 10526 10526 10527 10528 10529 10531 10533 10535 10537 10540 10544 10547 10551 10556 10561 10566 10572 10578 10584 10590 10596 10602 10609 10616 10623 10629 10635 10640 10645 10649 10655 10659 10663 10667 10671 10675 10676 10677 10679 10680 10679 10679 10682 10684 10686 10689 10693 10697 10699 10701 10704 10708 10709 10709 10709 10712 10713 10714 10716 10718 10719 10719 10723 10725 10725 10726 10727 10727 10728 10729 10730 10731 10731 10731 10731 10732 10732 10732 10732 10732 10732
10523 10523 10523 10523 10523 10524 10524 10525 10527 10528 10530 10532 10534 10537 10539 10543 10546 10550 10554 10559 10564 10569 10575 10582 10588 10594 10600 10607 10614 10621 10627 10632 10637 10641 10646 10649 10651 10654 10658 10660 10662 10664 10667 10668 10668 10670 10673 10676 10679 10682 10685 10689 10691 10694 10698 10700 10701 10702 10704 10706 10708 10709 10711 10712 10713 10714 10717 10720 10721 10722 10723 10723 10724 10725 10726 10727 10728 10728 10728 10729 10730 10730 10730 10730 10730
10520 10521 10521 10521 10521 10521 10522 10522 10524 10525 10527 10529 10531 10533 10536 10539 10541 10545 10548 10552 10556 10561 10567 10573 10579 10584 10590 10596 10602 10609 10614 10619 10623 10628 10632 10635 10637 10640 10642 10644 10647 10651 10654 10655 10656 10660 10664 10668 10673 10676 10678 10682 10684 10688 10691 10693 10695 10698 10699 10700 10702 10704 10705 10707 10708 10709 10712 10715 10716 10717 10718 10718 10719 10720 10722 10723 10724 10724 10724 10725 10726 10727 10727 10728 10728
10518 10518 10519 10519 10519 10519 10519 10520 10521 10522 10523 10525 10527 10529 10531 10534 10536 10539 10543 10546 10550 10554 10559 10564 10569 10574 10578 10584 10590 10595 10599 10603 10608 10613 10616 10618 10621 10625 10629 10631 10635 10639 10642 10644 10649 10654 10658 10664 10668 10670 10673 10676 10679 10683 10686 10687 10690 10693 10694 10695 10697 10698 10699 10702 10702 10703 10706 10709 10711 10711 10712 10713 10714 10715 10716 10718 10719 10720 10720 10721 10722 10723 10724 10725 10725
10515 10516 10516 10516 10517 10517 10517 10518 10518 10519 10520 10521 10523 10525 10527 10529 10531 10534 10537 10540 10544 10548 10552 10556 10560 10564 10568 10573 10578 10583 10589 10594 10598 10602 10605 10607 10613 10618 10620 10622 10627 10632 10636 10640 10645 10649 10653 10658 10661 10663 10667 10670 10674 10677 10680 10682 10685 10687 10687 10689 10690 10691 10693 10696 10697 10699 10701 10704 10706 10707 10707 10708 10709 10709 10711 10712 10714 10715 10716 10716 10717 10719 10720 10721 10722
10512 10513 10513 10513 10514 10514 10515 10515 10515 10516 10517 10518 10519 10520 10522 10523 10525 10528 10530 10533 10537 10540 10544 10548 10553 10557 10560 10565 10569 10574 10580 10586 10590 10594 10597 10602 10608 10612 10613 10616 10622 10627 10631 10634 10638 10641 10645 10649 10652 10655 10660 10664 10667 10670 10673 10676 10678 10679 10681 10682 10684 10686 10688 10691 10693 10695 10696 10697 10699 10701 10703 10703 10703 10704 10705 10707 10708 10710 10711 10712 10713 10714 10716 10717 10718
10509 10509 10510 10510 10511 10511 10511 10512 10512 10513 10513 10514 10515 10516 10517 10519 10520 10522 10524 10527 10529 10532 10536 10540 10544 10548 10553 10557 10561 10566 10572 10577 10581 10585 10589 10594 10598 10601 10605 10609 10614 10617 10620 10624 10628 10632 10637 10640 10644 10650 10654 10657 10660 10662 10665 10667 10669 10670 10672 10675 10679 10682 10683 10685 10688 10689 10689 10690 10692 10694 10697 10698 10698 10699 10700 10702 10703 10705 10706 10707 10708 10710 10711 10713 10714
10505 10506 10506 10507 10507 10507 10508 10508 10509 10510 10510 10511 10511 10512 10513 10515 10516 10517 10519 10521 10523 10525 10528 10532 10536 10540 10545 10549 10553 10558 10564 10569 10573 10576 10580 10585 10589 10592 10597 10601 10604 10607 10611 10615 10619 10624 10628 10631 10636 10640 10643 10645 10648 10651 10654 10656 10658 10659 10662 10666 10671 10673 10675 10679 10681 10682 10683 10683 10684 10687 10690 10692 10693 10694 10695 10697 10699 10700 10701 10703 10705 10705 10706 10707 10709
10502 10503 10503 10503 10503 10504 10504 10505 10505 10506 10506 10507 10507 10508 10509 10510 10511 10513 10514 10516 10517 10519 10522 10525 10528 10532 10536 10540 10544 10549 10554 10559 10564 10568 10572 10576 10579 10583 10587 10592 10595 10598 10602 10606 10610 10615 10618 10620 10623 10626 10629 10632 10635 10638 10641 10644 10647 10649 10652 10657 10660 10661 10665 10670 10672 10675 10677 10676 10677 10679 10682 10685 10687 10689 10690 10692 10695 10696 10697 10699 10701 10700 10701 10703 10704
10499 10499 10500 10500 10500 10500 10500 10500 10500 10501 10501 10502 10502 10503 10504 10505 10506 10507 10509 10510 10511 10512 10515 10517 10520 10524 10527 10531 10535 10540 10544 10549 10554 10558 10562 10566 10570 10573 10577 10582 10585 10588 10592 10596 10600 10605 10608 10610 10613 10617 10621 10624 10625 10627 10630 10634 10639 10642 10644 10648 10650 10651 10655 10659 10662 10666 10668 10669 10670 10672 10674 10678 10681 10683 10685 10688 10690 10691 10692 10694 10695 10696 10697 10699 10700
10497 10497 10497 10496 10496 10496 10496 10495 10496 10496 10496 10497 10497 10498 10498 10499 10500 10502 10503 10504 10505 10506 10507 10509 10512 10515 10518 10522 10526 10530 10534 10538 10543 10548 10552 10556 10560 10563 10567 10571 10575 10579 10582 10586 10591 10595 10598 10601 10604 10608 10613 10616 10617 10619 10622 10627 10632 10633 10635 10638 10641 10643 10647 10651 10655 10658 10658 10660 10663 10665 10667 10670 10672 10675 10679 10681 10683 10684 10685 10687 10690 10691 10693 10695 10696
10495 10494 10494 10494 10493 10493 10492 10492 10491 10491 10491 10491 10491 10492 10493 10493 10494 10495 10496 10497 10498 10498 10499 10501 10503 10506 10509 10512 10516 10519 10523 10528 10533 10537 10541 10545 10549 10553 10557 10561 10566 10571 10574 10578 10582 10586 10589 10592 10595 10599 10604 10608 10609 10611 10615 10619 10622 10624 10626 10630 10633 10636 10640 10643 10647 10649 10649 10653 10657 10658 10659 10662 10665 10668 10671 10673 10675 10676 10678 10682 10684 10686 10688 10690 10691
10493 10493 10492 10492 10491 10490 10490 10489 10488 10487 10487 10486 10486 10486 10487 10488 10488 10489 10490 10491 10491 10492 10492 10493 10495 10498 10501 10503 10505 10509 10512 10516 10521 10526 10530 10534 10538 10542 10546 10551 10556 10560 10565 10568 10571 10575 10579 10582 10585 10590 10596 10599 10599 10602 10606 10610 10613 10616 10618 10621 10624 10628 10631 10633 10636 10640 10642 10646 10650 10651 10652 10655 10658 10660 10663 10665 10667 10668 10671 10675 10677 10679 10682 10685 10685
10492 10492 10491 10490 10489 10488 10488 10487 10486 10485 10484 10483 10483 10482 10482 10483 10483 10484 10484 10484 10485 10485 10486 10486 10487 10489 10492 10494 10495 10497 10501 10504 10508 10513 10518 10522 10526 10530 10534 10539 10543 10548 10552 10556 10560 10564 10567 10571 10575 10580 10586 10588 10588 10592 10597 10600 10603 10606 10608 10611 10614 10618 10621 10623 10626 10630 10634 10638 10642 10643 10645 10648 10651 10652 10654 10656 10659 10661 10664 10667 10669 10671 10674 10677 10678
10491 10490 10490 10489 10488 10487 10486 10485 10484 10483 10482 10481 10480 10479 10479 10479 10479 10479 10479 10479 10480 10480 10480 10481 10481 10482 10483 10485 10486 10487 10489 10492 10496 10500 10505 10510 10515 10519 10523 10527 10532 10536 10541 10544 10548 10552 10555 10559 10564 10569 10576 10578 10577 10581 10586 10589 10592 10596 10598 10601 10604 10607 10610 10613 10616 10620 10625 10630 10634 10636 10638 10640 10642 10645 10646 10648 10651 10654 10656 10658 10661 10663 10666 10668 10670
10489 10488 10488 10487 10486 10485 10484 10483 10482 10480 10479 10478 10477 10477 10476 10476 10476 10475 10475 10475 10475 10475 10475 10475 10475 10475 10475 10476 10478 10478 10479 10482 10484 10488 10492 10497 10502 10507 10511 10516 10520 10525 10529 10533 10537 10541 10544 10548 10552 10558 10564 10567 10567 10571 10575 10578 10582 10585 10588 10591 10594 10597 10600 10602 10605 10611 10616 10621 10625 10628 10630 10631 10632 10636 10639 10640 10642 10645 10647 10650 10652 10655 10658 10660 10662
10486 10485 10485 10484 10483 10482 10481 10480 10479 10478 10477 10476 10475 10474 10474 10473 10472 10472 10471 10471 10470 10470 10469 10469 10469 10468 10468 10468 10469 10470 10471 10472 10474 10476 10480 10484 10489 10494 10498 10503 10508 10512 10517 10521 10525 10529 10533 10536 10540 10546 10552 10555 10557 10560 10564 10567 10571 10574 10577 10580 10583 10586 10588 10590 10595 10602 10606 10611 10614 10617 10620 10622 10624 10627 10630 10631 10633 10634 10638 10643 10644 10646 10650 10652 10655
10483 10482 10482 10481 10480 10479 10478 10477 10476 10475 10474 10473 10472 10471 10470 10470 10469 10468 10467 10467 10466 10465 10464 10463 10463 10462 10461 10461 10461 10461 10462 10463 10464 10466 10469 10472 10476 10481 10485 10490 10494 10499 10503 10508 10512 10517 10521 10524 10528 10532 10538 10542 10546 10549 10552 10556 10559 10563 10566 10569 10572 10575 10577 10580 10585 10590 10594 10599 10603 10606 10610 10613 10616 10618 10620 10623 10624 10625 10630 10635 10635 10636 10641 10644 10646
10480 10479 10478 10478 10477 10476 10474 10473 10472 10471 10470 10469 10468 10467 10466 10465 10465 10464 10463 10462 10461 10460 10459 10458 10457 10456 10455 10454 10454 10453 10453 10454 10455 10456 10459 10461 10464 10468 10471 10476 10480 10485 10489 10494 10498 10503 10507 10511 10515 10519 10523 10528 10532 10536 10540 10543 10547 10551 10554 10558 10561 10563 10565 10569 10573 10577 10581 10586 10591 10595 10599 10602 10606 10609 10611 10613 10615 10616 10621 10625 10626 10627 10632 10635 10638
10476 10475 10475 10474 10473 10472 10471 10469 10468 10467 10466 10465 10464 10463 10462 10461 10460 10459 10458 10456 10455 10454 10453 10452 10451 10450 10449 10448 10447 10446 10446 10446 10446 10447 10448 10451 10453 10456 10459 10462 10466 10470 10474 10479 10483 10488 10492 10497 10501 10504 10508 10513 10518 10522 10526 10530 10534 10537 10542 10546 10548 10550 10553 10557 10560 10563 10568 10573 10577 10582 10587 10591 10595 10598 10601 10602 10605 10607 10611 10615 10617 10619 10623 10627 10630
10472 10471 10471 10470 10469 10468 10467 10465 10464 10463 10462 10460 10459 10458 10457 10456 10455 10454 10453 10451 10449 10448 10447 10446 10444 10443 10442 10441 10441 10440 10439 10439 10438 10438 10439 10440 10443 10445 10448 10451 10453 10456 10459 10464 10468 10473 10477 10482 10487 10491 10494 10498 10502 10507 10512 10516 10519 10523 10528 10533 10536 10538 10541 10545 10547 10550 10556 10560 10564 10569 10574 10578 10582 10586 10589 10592 10594 10597 10600 10604 10607 10610 10613 10618 10622
10468 10468 10467 10466 10465 10464 10462 10461 10460 10459 10457 10456 10455 10454 10452 10451 10450 10448 10447 10445 10444 10442 10441 10440 10438 10437 10435 10435 10434 10433 10433 10432 10431 10431 10431 10432 10433 10434 10436 10439 10441 10444 10446 10450 10453 10458 10462 10467 10472 10476 10480 10484 10488 10492 10497 10501 10505 10509 10514 10519 10523 10526 10528 10532 10535 10538 10543 10547 10550 10555 10559 10563 10568 10573 10577 10580 10583 10586 10589 10593 10597 10600 10603 10608 10612
10464 10463 10462 10461 10460 10459 10458 10457 10455 10454 10453 10451 10450 10449 10447 10445 10444 10442 10441 10439 10438 10436 10435 10433 10432 10430 10429 10428 10427 10426 10425 10425 10425 10424 10424 10424 10424 10425 10426 10428 10429 10431 10434 10437 10440 10443 10447 10452 10456 10461 10465 10470 10474 10478 10481 10485 10490 10495 10499 10504 10509 10513 10516 10519 10522 10526 10530 10533 10537 10542 10546 10550 10555 10560 10564 10568 10571 10574 10578 10583 10587 10589 10592 10596 10600
10460 10459 10458 10457 10456 10454 10453 10452 10451 10449 10448 10446 10445 10443 10441 10440 10438 10436 10435 10433 10432 10430 10428 10427 10425 10424 10422 10421 10420 10419 10418 10418 10418 10417 10417 10416 10416 10416 10417 10418 10419 10420 10422 10424 10427 10430 10433 10437 10441 10445 10449 10454 10458 10463 10467 10470 10475 10480 10484 10489 10494 10499 10503 10507 10510 10513 10517 10520 10524 10529 10533 10537 10542 10546 10550 10554 10558 10562 10566 10570 10573 10576 10580 10584 10587
10456 10455 10454 10452 10451 10450 10448 10447 10446 10444 10443 10441 10439 10438 10436 10434 10432 10430 10429 10427 10425 10423 10422 10420 10419 10417 10416 10415 10413 10412 10411 10410 10410 10409 10409 10409 10408 10408 10409 10409 10409 10410 10411 10413 10415 10417 10420 10423 10426 10430 10434 10439 10443 10447 10452 10456 10460 10464 10469 10473 10478 10483 10488 10493 10497 10500 10504 10508 10512 10516 10521 10525 10529 10533 10537 10541 10546 10550 10553 10556 10560 10564 10568 10572 10575
10452 10450 10449 10448 10446 10445 10444 10442 10441 10439 10437 10436 10434 10432 10430 10428 10426 10424 10423 10421 10419 10417 10415 10413 10412 10410 10409 10408 10406 10405 10403 10402 10401 10399 10399 10398 10398 10398 10399 10399 10400 10400 10401 10402 10404 10406 10408 10410 10413 10416 10420 10424 10428 10432 10437 10442 10447 10450 10454 10458 10462 10467 10472 10477 10482 10486 10490 10494 10499 10503 10508 10512 10516 10520 10524 10529 10534 10537 10539 10542 10547 10552 10556 10558 10563
10448 10447 10445 10444 10442 10441 10439 10438 10436 10434 10433 10431 10429 10427 10425 10423 10421 10418 10416 10414 10412 10410 10408 10406 10404 10403 10401 10400 10398 10397 10395 10394 10392 10390 10389 10388 10388 10388 10389 10389 10390 10390 10391 10392 10393 10395 10397 10399 10401 10404 10406 10409 10413 10417 10421 10427 10432 10437 10440 10443 10446 10451 10456 10461 10466 10471 10476 10480 10484 10489 10494 10498 10502 10507 10511 10516 10521 10524 10526 10529 10534 10539 10542 10545 10551
10444 10443 10441 10440 10438 10437 10435 10433 10432 10430 10428 10426 10424 10422 10419 10417 10415 10412 10410 10407 10405 10403 10401 10399 10397 10395 10393 10391 10390 10388 10387 10385 10384 10382 10380 10379 10379 10379 10379 10379 10380 10380 10380 10381 10381 10383 10384 10386 10388 10391 10393 10396 10399 10403 10406 10411 10416 10421 10426 10429 10432 10436 10440 10444 10449 10455 10460 10465 10469 10474 10479 10484 10489 10493 10497 10502 10507 10510 10512 10516 10520 10525 10529 10532 10539
10441 10440 10438 10436 10435 10433 10431 10429 10428 10426 10423 10421 10419 10417 10414 10412 10409 10406 10403 10401 10398 10396 10393 10391 10389 10387 10385 10383 10381 10379 10378 10376 10374 10373 10372 10371 10370 10369 10368 10368 10369 10369 10369 10369 10370 10370 10372 10373 10375 10377 10379 10382 10385 10388 10391 10395 10399 10404 10409 10414 10418 10422 10425 10429 10433 10438 10443 10448 10453 10458 10463 10468 10473 10478 10482 10487 10492 10495 10498 10502 10506 10511 10514 10519 10526
10438 10437 10435 10433 10431 10429 10428 10426 10424 10422 10420 10417 10415 10412 10409 10407 10404 10401 10398 10395 10392 10390 10387 10384 10382 10379 10377 10374 10372 10370 10368 10366 10365 10363 10362 10362 10361 10360 10358 10357 10356 10356 10357 10357 10357 10358 10359 10360 10361 10362 10364 10367 10370 10372 10376 10380 10384 10388 10392 10397 10401 10406 10410 10414 10418 10422 10426 10431 10436 10441 10447 10452 10457 10462 10467 10472 10476 10480 10483 10487 10492 10496 10500 10505 10512
10436 10434 10432 10431 10429 10427 10425 10423 10420 10418 10416 10413 10410 10407 10404 10401 10398 10395 10393 10390 10387 10384 10381 10378 10376 10373 10370 10367 10364 10362 10360 10357 10355 10353 10352 10352 10351 10350 10348 10346 10345 10344 10344 10344 10345 10345 10346 10347 10348 10349 10350 10352 10354 10357 10360 10363 10367 10371 10375 10379 10384 10389 10394 10398 10402 10406 10410 10415 10419 10424 10429 10434 10440 10445 10450 10455 10460 10464 10467 10472 10477 10481 10485 10490 10496
10434 10433 10431 10429 10427 10424 10422 10420 10417 10414 10411 10409 10406 10403 10400 10397 10393 10390 10387 10385 10382 10379 10375 10373 10370 10366 10363 10361 10358 10355 10352 10349 10346 10344 10342 10341 10340 10339 10338 10336 10335 10334 10333 10332 10332 10333 10333 10334 10335 10336 10338 10339 10340 10342 10344 10347 10351 10354 10358 10363 10367 10371 10376 10380 10385 10390 10394 10399 10403 10408 10412 10417 10422 10427 10432 10438 10443 10447 10451 10455 10460 10466 10471 10475 10481
10433 10431 10429 10426 10424 10422 10419 10416 10414 10411 10408 10405 10402 10399 10396 10393 10390 10386 10383 10379 10377 10374 10371 10368 10365 10361 10357 10354 10351 10348 10345 10342 10338 10335 10333 10331 10329 10328 10327 10326 10325 10323 10322 10322 10321 10321 10321 10321 10322 10323 10325 10326 10327 10329 10331 10333 10335 10338 10342 10346 10350 10354 10358 10362 10367 10372 10377 10382 10387 10391 10396 10401 10405 10410 10415 10420 10425 10430 10433 10438 10443 10449 10454 10460 10466
10430 10427 10425 10423 10420 10418 10416 10413 10410 10407 10404 10401 10398 10395 10391 10388 10385 10382 10379 10376 10372 10368 10365 10362 10359 10355 10352 10347 10344 10341 10337 10334 10331 10328 10324 10322 10319 10318 10316 10315 10314 10312 10311 10310 10310 10309 10309 10309 10309 10309 10311 10312 10314 10315 10317 10319 10321 10323 10326 10329 10333 10336 10341 10345 10349 10353 10358 10363 10368 10373 10379 10384 10389 10393 10398 10402 10407 10412 10416 10421 10425 10431 10436 10443 10450
10426 10423 10421 10419 10417 10414 10412 10409 10406 10403 10400 10397 10394 10390 10387 10383 10380 10377 10373 10370 10367 10363 10359 10354 10351 10347 10344 10341 10337 10333 10330 10326 10323 10319 10316 10313 10310 10308 10306 10304 10303 10301 10300 10299 10298 10298 10297 10297 10296 10296 10297 10298 10299 10301 10303 10304 10307 10309 10311 10313 10316 10319 10323 10327 10331 10335 10340 10344 10349 10355 10360 10365 10371 10375 10380 10385 10390 10394 10399 10403 10408 10413 10418 10424 10431
10422 10420 10417 10415 10413 10410 10407 10405 10402 10399 10396 10393 10389 10386 10382 10378 10374 10370 10366 10363 10359 10355 10351 10347 10343 10339 10335 10331 10328 10325 10322 10318 10314 10311 10307 10304 10301 10298 10296 10294 10292 10291 10289 10288 10286 10286 10285 10284 10284 10284 10284 10284 10285 10286 10288 10289 10292 10294 10296 10298 10301 10303 10306 10310 10314 10318 10322 10326 10330 10336 10341 10346 10351 10356 10361 10367 10371 10376 10381 10386 10391 10396 10401 10407 10413
10418 10416 10413 10411 10408 10406 10403 10400 10397 10394 10391 10388 10384 10380 10376 10372 10368 10364 10360 10356 10352 10347 10343 10339 10335 10331 10326 10322 10318 10315 10312 10309 10306 10302 10299 10295 10292 10289 10286 10283 10281 10279 10278 10277 10275 10274 10273 10272 10272 10271 10271 10271 10272 10273 10274 10275 10277 10279 10281 10283 10286 10288 10291 10294 10297 10301 10304 10308 10312 10317 10322 10327 10333 10337 10342 10347 10352 10357 10362 10367 10373 10378 10383 10389 10396
10414 10412 10409 10406 10404 10401 10398 10396 10393 10390 10386 10382 10378 10375 10371 10367 10362 10358 10354 10349 10345 10340 10336 10331 10327 10322 10318 10314 10310 10306 10303 10299 10296 10293 10290 10286 10283 10280 10277 10273 10270 10268 10266 10265 10264 10263 10261 10260 10260 10259 10259 10259 10259 10260 10260 10262 10263 10264 10266 10269 10271 10273 10276 10278 10281 10285 10288 10292 10295 10299 10303 10308 10314 10319 10323 10328 10332 10337 10342 10347 10353 10359 10364 10370 10377
10410 10407 10405 10402 10399 10396 10393 10390 10387 10384 10380 10377 10373 10369 10365 10360 10356 10352 10348 10343 10338 10333 10329 10324 10319 10314 10310 10305 10301 10298 10294 10290 10286 10283 10280 10277 10274 10271 10268 10265 10261 10258 10256 10254 10252 10251 10250 10249 10248 10247 10247 10247 10247 10247 10248 10249 10250 10251 10253 10254 10257 10259 10261 10263 10266 10269 10272 10276 10279 10283 10286 10291 10295 10300 10305 10310 10314 10318 10323 10328 10333 10339 10344 10349 10356
10405 10402 10400 10397 10394 10391 10388 10385 10382 10379 10375 10371 10367 10363 10358 10354 10350 10346 10341 10336 10332 10327 10321 10317 10312 10307 10302 10298 10294 10290 10286 10282 10278 10274 10270 10267 10264 10261 10258 10255 10252 10249 10246 10244 10241 10239 10238 10238 10237 10236 10236 10235 10235 10236 10236 10237 10237 10238 10240 10241 10243 10245 10247 10249 10251 10254 10257 10260 10264 10267 10270 10274 10278 10283 10288 10292 10297 10301 10305 10309 10314 10319 10324 10329 10335
10400 10398 10395 10392 10389 10386 10383 10380 10376 10373 10369 10365 10361 10357 10353 10348 10344 10339 10334 10330 10325 10320 10315 10310 10305 10300 10295 10291 10287 10283 10279 10275 10270 10266 10262 10258 10254 10251 10248 10245 10242 10239 10237 10235 10232 10230 10228 10226 10225 10225 10225 10224 10224 10224 10225 10225 10226 10226 10228 10229 10230 10232 10234 10235 10237 10239 10242 10245 10248 10252 10255 10258 10262 10266 10270 10275 10280 10284 10288 10292 10296 10300 10306 10311 10316
10396 10393 10390 10387 10384 10381 10378 10374 10371 10367 10363 10360 10355 10351 10347 10342 10337 10333 10328 10323 10318 10313 10308 10304 10299 10293 10288 10284 10280 10276 10272 10267 10263 10259 10254 10250 10246 10242 10238 10235 10231 10229 10226 10224 10223 10221 10218 10216 10215 10214 10213 10213 10213 10214 10214 10214 10215 10215 10216 10217 10218 10220 10221 10223 10224 10226 10228 10231 10234 10237 10240 10243 10246 10250 10254 10258 10263 10267 10272 10276 10279 10283 10288 10293 10298
10390 10387 10384 10381 10378 10375 10372 10368 10365 10361 10357 10354 10349 10345 10340 10336 10331 10326 10321 10316 10311 10307 10302 10297 10293 10287 10282 10277 10273 10269 10265 10260 10255 10251 10247 10243 10238 10234 10230 10226 10222 10219 10216 10214 10212 10211 10209 10208 10206 10204 10203 10202 10202 10202 10203 10204 10204 10205 10205 10206 10207 10208 10209 10211 10212 10214 10215 10217 10220 10222 10226 10229 10232 10235 10239 10242 10246 10251 10255 10260 10264 10267 10271 10276 10280
10384 10381 10378 10375 10372 10369 10366 10363 10359 10355 10352 10348 10343 10338 10333 10329 10324 10319 10314 10309 10305 10300 10295 10290 10286 10281 10276 10271 10266 10262 10257 10252 10248 10243 10239 10235 10230 10226 10222 10218 10213 10210 10206 10204 10202 10200 10199 10198 10197 10195 10194 10193 10192 10192 10192 10193 10193 10194 10195 10195 10196 10196 10197 10198 10200 10202 10203 10205 10207 10209 10212 10215 10218 10221 10224 10227 10231 10235 10239 10244 10248 10252 10256 10260 10264
10378 10375 10372 10369 10366 10363 10360 10357 10353 10349 10345 10341 10337 10332 10327 10322 10317 10312 10308 10303 10298 10293 10289 10284 10279 10274 10270 10265 10260 10255 10250 10245 10240 10236 10231 10227 10222 10218 10214 10209 10205 10201 10198 10195 10192 10191 10189 10188 10187 10186 10185 10184 10182 10182 10182 10182 10182 10183 10184 10185 10185 10186 10186 10187 10188 10190 10191 10193 10195 10197 10199 10202 10204 10207 10210 10213 10217 10220 10224 10228 10233 10237 10241 10245 10248
10372 10369 10366 10363 10360 10357 10354 10351 10347 10343 10339 10335 10330 10325 10320 10315 10311 10306 10301 10297 10292 10287 10282 10277 10272 10267 10263 10258 10253 10248 10243 10238 10233 10228 10224 10219 10215 10210 10206 10201 10197 10193 10189 10186 10183 10181 10179 10178 10177 10176 10175 10174 10173 10173 10172 10172 10171 10172 10172 10173 10174 10175 10176 10176 10177 10178 10180 10181 10183 10185 10187 10190 10192 10194 10197 10200 10203 10206 10209 10213 10217 10222 10226 10230 10234
10366 10363 10360 10358 10355 10351 10348 10344 10340 10336 10332 10328 10324 10319 10314 10309 10304 10299 10294 10290 10285 10280 10276 10271 10266 10261 10256 10250 10245 10240 10235 10230 10226 10221 10216 10212 10207 10203 10198 10193 10189 10185 10182 10178 10175 10172 10170 10169 10167 10166 10165 10165 10164 10163 10163 10162 10162 10162 10162 10162 10163 10164 10165 10166 10167 10168 10169 10170 10171 10173 10175 10178 10180 10182 10185 10187 10189 10192 10195 10199 10203 10207 10211 10216 10220
10360 10356 10353 10351 10348 10345 10342 10338 10334 10330 10326 10321 10317 10313 10307 10302 10298 10293 10288 10283 10278 10273 10269 10264 10259 10254 10248 10243 10238 10232 10227 10223 10218 10214 10209 10204 10200 10195 10190 10186 10181 10177 10174 10170 10167 10164 10162 10160 10158 10157 10156 10155 10154 10154 10153 10153 10153 10152 10152 10152 10152 10153 10154 10155 10156 10157 10158 10159 10160 10162 10163 10165 10168 10170 10173 10175 10177 10179 10182 10185 10189 10193 10197 10201 10206
10353 10349 10346 10344 10341 10338 10335 10332 10327 10323 10319 10315 10310 10306 10301 10296 10292 10287 10282 10277 10272 10267 10262 10257 10252 10247 10241 10236 10230 10225 10220 10215 10211 10206 10201 10197 10192 10188 10183 10178 10174 10170 10166 10163 10159 10157 10154 10152 10150 10148 10147 10146 10145 10144 10144 10143 10143 10143 10143 10143 10143 10143 10143 10144 10145 10146 10148 10149 10150 10151 10152 10154 10156 10158 10161 10163 10165 10168 10170 10172 10176 10179 10183 10187 10192
10346 10342 10339 10337 10334 10331 10328 10325 10321 10316 10312 10307 10303 10299 10294 10290 10285 10280 10275 10271 10266 10261 10256 10251 10245 10240 10234 10229 10224 10218 10213 10209 10204 10199 10194 10189 10185 10180 10176 10171 10167 10162 10159 10155 10152 10149 10146 10144 10142 10140 10138 10137 10136 10135 10134 10134 10134 10134 10134 10134 10134 10133 10133 10134 10134 10135 10136 10138 10140 10141 10142 10143 10145 10147 10149 10151 10154 10156 10158 10160 10163 10166 10170 10174 10178
10339 10336 10332 10330 10327 10324 10321 10317 10313 10309 10305 10300 10296 10292 10287 10283 10279 10274 10269 10264 10259 10254 10249 10244 10238 10233 10227 10222 10217 10212 10207 10202 10197 10192 10187 10182 10178 10173 10169 10164 10160 10155 10151 10148 10144 10141 10139 10136 10134 10132 10131 10129 10128 10127 10126 10125 10125 10124 10124 10124 10124 10124 10124 10124 10124 10125 10126 10127 10129 10130 10132 10133 10135 10136 10138 10140 10142 10144 10147 10149 10151 10154 10157 10161 10165